Hourly Weather Tsumeb

Today, 9 July, Thursday

Time Temperature Precipitation Wind Pressure Humidity
00:00 +10°C° 0 mm 2 mps 653 mmHg 33%
01:00 +10°C° 0 mm 2 mps 653 mmHg 38%
02:00 +9°C° 0 mm 2 mps 653 mmHg 40%
03:00 +9°C° 0 mm 3 mps 653 mmHg 42%
04:00 +9°C° 0 mm 3 mps 652 mmHg 44%
05:00 +10°C° 0 mm 3 mps 653 mmHg 44%
06:00 +10°C° 0 mm 3 mps 653 mmHg 44%
07:00 +11°C° 0 mm 3 mps 654 mmHg 45%
08:00 +16°C° 0 mm 3 mps 655 mmHg 38%
09:00 +19°C° 0 mm 4 mps 655 mmHg 30%
10:00 +23°C° 0 mm 4 mps 656 mmHg 23%
11:00 +25°C° 0 mm 4 mps 656 mmHg 20%
12:00 +26°C° 0 mm 4 mps 656 mmHg 18%
13:00 +27°C° 0 mm 4 mps 655 mmHg 14%
14:00 +27°C° 0 mm 4 mps 655 mmHg 14%
15:00 +28°C° 0 mm 4 mps 654 mmHg 13%
16:00 +28°C° 0 mm 3 mps 654 mmHg 12%
17:00 +22°C° 0 mm 3 mps 653 mmHg 23%
18:00 +18°C° 0 mm 2 mps 652 mmHg 34%
19:00 +14°C° 0 mm 1 mps 651 mmHg 44%
20:00 +13°C° 0 mm 1 mps 651 mmHg 44%
21:00 +12°C° 0 mm 1 mps 651 mmHg 45%
22:00 +12°C° 0 mm 1 mps 651 mmHg 45%
23:00 +11°C° 0 mm 1 mps 651 mmHg 47%

Tomorrow, 10 July, Friday

Time Temperature Precipitation Wind Pressure Humidity
00:00 +11°C° 0 mm 1 mps 651 mmHg 49%
01:00 +10°C° 0 mm 1 mps 650 mmHg 51%
02:00 +10°C° 0 mm 1 mps 650 mmHg 51%
03:00 +8°C° 0 mm 0 mps 650 mmHg 52%
04:00 +8°C° 0 mm 0 mps 650 mmHg 52%
05:00 +10°C° 0 mm 1 mps 651 mmHg 45%
06:00 +10°C° 0 mm 1 mps 651 mmHg 38%
07:00 +10°C° 0 mm 2 mps 652 mmHg 31%
08:00 +15°C° 0 mm 2 mps 653 mmHg 25%
09:00 +19°C° 0 mm 3 mps 654 mmHg 19%
10:00 +24°C° 0 mm 3 mps 656 mmHg 13%
11:00 +26°C° 0 mm 4 mps 655 mmHg 12%
12:00 +28°C° 0 mm 6 mps 655 mmHg 11%
13:00 +29°C° 0 mm 7 mps 655 mmHg 9%
14:00 +29°C° 0 mm 8 mps 655 mmHg 10%
15:00 +28°C° 0 mm 8 mps 654 mmHg 10%
16:00 +28°C° 0 mm 8 mps 654 mmHg 11%
17:00 +24°C° 0 mm 7 mps 653 mmHg 15%
18:00 +20°C° 0 mm 5 mps 653 mmHg 18%
19:00 +17°C° 0 mm 4 mps 652 mmHg 21%
20:00 +15°C° 0 mm 4 mps 653 mmHg 23%
21:00 +14°C° 0 mm 4 mps 653 mmHg 24%
22:00 +13°C° 0 mm 4 mps 653 mmHg 26%
23:00 +12°C° 0 mm 3 mps 653 mmHg 28%

Day after tomorrow, 11 July, Saturday

Time Temperature Precipitation Wind Pressure Humidity
00:00 +11°C° 0 mm 3 mps 653 mmHg 29%
01:00 +10°C° 0 mm 2 mps 652 mmHg 31%
02:00 +9°C° 0 mm 2 mps 652 mmHg 35%
03:00 +8°C° 0 mm 2 mps 652 mmHg 39%
04:00 +8°C° 0 mm 2 mps 652 mmHg 44%
05:00 +8°C° 0 mm 2 mps 653 mmHg 38%
06:00 +9°C° 0 mm 2 mps 654 mmHg 33%
07:00 +9°C° 0 mm 2 mps 655 mmHg 28%
08:00 +14°C° 0 mm 2 mps 656 mmHg 23%
09:00 +18°C° 0 mm 3 mps 657 mmHg 18%
10:00 +22°C° 0 mm 3 mps 658 mmHg 14%
11:00 +25°C° 0 mm 3 mps 658 mmHg 12%
12:00 +26°C° 0 mm 3 mps 657 mmHg 10%
13:00 +28°C° 0 mm 3 mps 657 mmHg 8%
14:00 +28°C° 0 mm 3 mps 656 mmHg 8%
15:00 +28°C° 0 mm 3 mps 656 mmHg 8%
16:00 +27°C° 0 mm 4 mps 656 mmHg 8%
17:00 +23°C° 0 mm 4 mps 655 mmHg 12%
18:00 +20°C° 0 mm 4 mps 655 mmHg 15%
19:00 +15°C° 0 mm 5 mps 654 mmHg 18%
20:00 +15°C° 0 mm 5 mps 655 mmHg 22%
21:00 +14°C° 0 mm 5 mps 655 mmHg 26%
22:00 +13°C° 0 mm 6 mps 655 mmHg 29%
23:00 +11°C° 0 mm 6 mps 655 mmHg 32%

12 July, Sunday

Time Temperature Precipitation Wind Pressure Humidity
00:00 +10°C° 0 mm 6 mps 655 mmHg 35%
01:00 +9°C° 0 mm 6 mps 655 mmHg 38%
02:00 +9°C° 0 mm 6 mps 655 mmHg 38%
03:00 +8°C° 0 mm 6 mps 655 mmHg 39%
04:00 +7°C° 0 mm 6 mps 655 mmHg 39%
05:00 +7°C° 0 mm 6 mps 656 mmHg 39%
06:00 +7°C° 0 mm 6 mps 656 mmHg 38%
07:00 +7°C° 0 mm 6 mps 657 mmHg 38%
08:00 +11°C° 0 mm 6 mps 657 mmHg 32%
09:00 +15°C° 0 mm 6 mps 658 mmHg 25%
10:00 +19°C° 0 mm 6 mps 658 mmHg 19%
11:00 +22°C° 0 mm 6 mps 658 mmHg 16%
12:00 +25°C° 0 mm 5 mps 658 mmHg 14%
13:00 +27°C° 0 mm 5 mps 657 mmHg 11%
14:00 +27°C° 0 mm 4 mps 657 mmHg 11%
15:00 +28°C° 0 mm 3 mps 657 mmHg 10%
16:00 +28°C° 0 mm 3 mps 656 mmHg 10%
17:00 +24°C° 0 mm 3 mps 656 mmHg 13%
18:00 +20°C° 0 mm 3 mps 655 mmHg 16%
19:00 +17°C° 0 mm 3 mps 654 mmHg 20%
20:00 +16°C° 0 mm 3 mps 655 mmHg 21%
21:00 +14°C° 0 mm 3 mps 655 mmHg 22%
22:00 +13°C° 0 mm 3 mps 655 mmHg 24%
23:00 +13°C° 0 mm 3 mps 655 mmHg 24%

13 July, Monday

Time Temperature Precipitation Wind Pressure Humidity
00:00 +12°C° 0 mm 3 mps 654 mmHg 24%
01:00 +11°C° 0 mm 3 mps 654 mmHg 24%
02:00 +10°C° 0 mm 3 mps 654 mmHg 25%
03:00 +10°C° 0 mm 3 mps 654 mmHg 26%
04:00 +9°C° 0 mm 3 mps 653 mmHg 26%
05:00 +10°C° 0 mm 3 mps 654 mmHg 25%
06:00 +10°C° 0 mm 3 mps 654 mmHg 24%
07:00 +10°C° 0 mm 2 mps 655 mmHg 22%
08:00 +14°C° 0 mm 3 mps 656 mmHg 18%
09:00 +19°C° 0 mm 3 mps 657 mmHg 14%
10:00 +24°C° 0 mm 3 mps 658 mmHg 10%
11:00 +26°C° 0 mm 3 mps 657 mmHg 10%
12:00 +27°C° 0 mm 2 mps 657 mmHg 9%
13:00 +29°C° 0 mm 2 mps 656 mmHg 8%
14:00 +29°C° 0 mm 2 mps 656 mmHg 8%
15:00 +29°C° 0 mm 2 mps 656 mmHg 7%
16:00 +29°C° 0 mm 1 mps 655 mmHg 7%
17:00 +25°C° 0 mm 2 mps 654 mmHg 14%
18:00 +20°C° 0 mm 2 mps 654 mmHg 20%
19:00 +16°C° 0 mm 2 mps 653 mmHg 27%
20:00 +15°C° 0 mm 2 mps 653 mmHg 29%
21:00 +14°C° 0 mm 2 mps 653 mmHg 31%
22:00 +13°C° 0 mm 2 mps 653 mmHg 32%
23:00 +12°C° 0 mm 1 mps 653 mmHg 37%

14 July, Tuesday

Time Temperature Precipitation Wind Pressure Humidity
00:00 +11°C° 0 mm 1 mps 653 mmHg 42%
01:00 +10°C° 0 mm 1 mps 652 mmHg 46%
02:00 +11°C° 0 mm 1 mps 653 mmHg 40%
03:00 +10°C° 0 mm 2 mps 653 mmHg 34%
04:00 +11°C° 0 mm 3 mps 653 mmHg 28%
05:00 +12°C° 0 mm 2 mps 654 mmHg 26%
06:00 +12°C° 0 mm 2 mps 654 mmHg 24%
07:00 +12°C° 0 mm 2 mps 655 mmHg 22%
08:00 +17°C° 0 mm 2 mps 656 mmHg 18%
09:00 +21°C° 0 mm 3 mps 657 mmHg 14%
10:00 +26°C° 0 mm 3 mps 658 mmHg 10%
11:00 +27°C° 0 mm 4 mps 658 mmHg 9%
12:00 +29°C° 0 mm 4 mps 657 mmHg 8%
13:00 +30°C° 0 mm 5 mps 657 mmHg 7%
14:00 +29°C° 0 mm 5 mps 657 mmHg 7%
15:00 +29°C° 0 mm 5 mps 656 mmHg 7%
16:00 +29°C° 0 mm 6 mps 656 mmHg 7%
17:00 +26°C° 0 mm 6 mps 656 mmHg 9%
18:00 +21°C° 0 mm 5 mps 655 mmHg 11%
19:00 +17°C° 0 mm 5 mps 655 mmHg 13%
20:00 +16°C° 0 mm 5 mps 655 mmHg 14%
21:00 +16°C° 0 mm 6 mps 656 mmHg 14%
22:00 +15°C° 0 mm 6 mps 656 mmHg 15%
23:00 +14°C° 0 mm 7 mps 656 mmHg 15%
Show more